Showing default

COSMOS 2082, 20624

Orbit data source: Space-Track

COSMOS 2082, 20624 is a payload satellite owned by GRU (CIS) in LEO that was launched on Tue, 22 May 1990 UTC via a ZENIT-2 launch vehicle from the Tyuratam Missile And Space Complex (TTMTR). Payload-class satellites include a variety of spacecraft equipped with specific instruments for various scientific and technological missions. These include communications satellites like Starlink; space stations such as the ISS; scientific satellites like the Hubble; Earth observation satellites from companies like Planet Labs, Umbra, and HawkEye 360; GPS; miniature CubeSats for education and research; and military/defense satellites.

Loading next visibility...
Identifier
20624, 1990-046A
Orbit
LEO
Country
Flag of CISCIS
Related business
Manufacturer
Yuzhnoe
Mission
Defense Sigint
Bus & Motor
TSELINA-2, Unknown motor
Mass
3,250 kg wet, 3,250 kg dry
Launch date (UTC)
1990-05-22 (36 years ago)
Launch vehicle
ZENIT-2
Launch site
Tyuratam Missile And Space Complex (TTMTR)
Object type
Payload
Rocket body
Debris
Shape & HBR
Unknown shape, 9.5 m
Radar Cross Section
Large (>1 m²)

Expand to show TLE details & history
Last TLE update: 10 hours ago

TLE from 10 hours ago
0 COSMOS 2082
1 20624U 90046A   26093.91002933  .00000173  00000-0  11378-3 0  9994
2 20624  71.0411 327.8622 0014664 173.7731 186.3577 14.14831563851197
Epoch: 2026-04-03T21:50Z
TLE epoch observation values (Epoch: 2026-04-03T21:50:26.534Z)
Latitude
0.00001°
Longitude
168.01426°
Altitude
855.813 km
Speed
7.42 km/s
True Right ascension
21h 51m 26s
True Declination
0° 00' 00"
Sunlit
Object was in daylight at epoch
Visualization orbit readout
Latitude
Unknown
Longitude
Unknown
Altitude
Unknown
Speed
Unknown
Apparent Right ascension
Unknown
Apparent Declination
Unknown
Sunlit
N/A
Visualization observer readout
Local Sidereal Time
13:16:12
Azimuth
Unknown
Elevation
Unknown
Doppler factor
Unknown
Orbital elements
Apogee altitude
851.392 km
Perigee altitude
830.22 km
Semi-major axis
7,218.943 km
Eccentricity
0.00147
Inclination
71.0411°
RAAN
327.8622°
Arg. of periapsis
173.7731°
True anomaly
186.33913°
Mean anomaly
186.3577°
Eccentric anomaly
186.34841°
Mean motion
3.53861 °/min
Orbital period
101.73 mins
BSTAR
0.00011378
Loading maneuver chart data...
Computing Atmospheric mass density...
Loading historical data...
Loading historical data...
Loading historical data...
Loading historical data...
Loading historical data...
Loading historical data...
Loading historical data...
Other satellites on launch #46 in the year 1990 (1990-05-22 UTC)

Documentation

Showing up to 5 results
|